Meteo orario Aalten

Oggi, 4 Marzo, Giovedi

Tempo Temperatura Precipitazioni Vento Pressione Umidità
00:00 +3°C° 0 mm 3 m/s 765 mm Hg 93%
01:00 +4°C° 0 mm 2 m/s 764 mm Hg 92%
02:00 +5°C° 0 mm 1 m/s 764 mm Hg 92%
03:00 +5°C° 0 mm 1 m/s 763 mm Hg 91%
04:00 +5°C° 0.1 mm 1 m/s 763 mm Hg 90%
05:00 +5°C° 0.1 mm 1 m/s 763 mm Hg 90%
06:00 +5°C° 0 mm 1 m/s 763 mm Hg 87%
07:00 +5°C° 0.5 mm 1 m/s 763 mm Hg 87%
08:00 +4°C° 0.5 mm 2 m/s 763 mm Hg 86%
09:00 +4°C° 0.5 mm 2 m/s 762 mm Hg 86%
10:00 +5°C° 0.2 mm 2 m/s 762 mm Hg 83%
11:00 +4°C° 0.2 mm 3 m/s 762 mm Hg 80%
12:00 +4°C° 0.2 mm 3 m/s 762 mm Hg 78%
13:00 +5°C° 0 mm 3 m/s 762 mm Hg 76%
14:00 +5°C° 0 mm 3 m/s 762 mm Hg 75%
15:00 +5°C° 0 mm 4 m/s 762 mm Hg 74%
16:00 +5°C° 0 mm 4 m/s 762 mm Hg 73%
17:00 +4°C° 0 mm 4 m/s 762 mm Hg 73%
18:00 +4°C° 0 mm 4 m/s 762 mm Hg 73%
19:00 +4°C° 0 mm 4 m/s 762 mm Hg 73%
20:00 +3°C° 0 mm 4 m/s 763 mm Hg 74%
21:00 +3°C° 0 mm 4 m/s 764 mm Hg 74%
22:00 +3°C° 0 mm 4 m/s 764 mm Hg 74%
23:00 +1°C° 0 mm 4 m/s 764 mm Hg 74%

Domani, 5 Marzo, Venerdi

Tempo Temperatura Precipitazioni Vento Pressione Umidità
00:00 +1°C° 0 mm 5 m/s 765 mm Hg 74%
01:00 0°C° 0 mm 4 m/s 765 mm Hg 71%
02:00 -1°C° 0 mm 4 m/s 765 mm Hg 68%
03:00 -2°C° 0 mm 4 m/s 765 mm Hg 65%
04:00 -2°C° 0 mm 3 m/s 766 mm Hg 65%
05:00 -2°C° 0 mm 3 m/s 766 mm Hg 66%
06:00 -2°C° 0 mm 3 m/s 767 mm Hg 67%
07:00 -1°C° 0 mm 3 m/s 767 mm Hg 62%
08:00 -1°C° 0 mm 4 m/s 768 mm Hg 56%
09:00 +1°C° 0 mm 4 m/s 768 mm Hg 51%
10:00 +3°C° 0 mm 4 m/s 768 mm Hg 46%
11:00 +4°C° 0 mm 4 m/s 769 mm Hg 42%
12:00 +4°C° 0 mm 4 m/s 769 mm Hg 37%
13:00 +5°C° 0 mm 4 m/s 769 mm Hg 39%
14:00 +5°C° 0 mm 3 m/s 769 mm Hg 40%
15:00 +5°C° 0 mm 3 m/s 769 mm Hg 41%
16:00 +4°C° 0 mm 3 m/s 769 mm Hg 49%
17:00 +3°C° 0 mm 2 m/s 770 mm Hg 57%
18:00 +2°C° 0 mm 2 m/s 770 mm Hg 64%
19:00 +2°C° 0 mm 2 m/s 771 mm Hg 68%
20:00 +1°C° 0 mm 2 m/s 771 mm Hg 72%
21:00 -1°C° 0 mm 2 m/s 772 mm Hg 76%
22:00 -1°C° 0 mm 2 m/s 772 mm Hg 78%
23:00 -1°C° 0 mm 2 m/s 772 mm Hg 79%

Dopodomani, 6 Marzo, Sabato

Tempo Temperatura Precipitazioni Vento Pressione Umidità
00:00 -1°C° 0 mm 2 m/s 772 mm Hg 80%
01:00 0°C° 0 mm 1 m/s 772 mm Hg 80%
02:00 0°C° 0 mm 1 m/s 772 mm Hg 80%
03:00 0°C° 0 mm 1 m/s 772 mm Hg 80%
04:00 0°C° 0 mm 1 m/s 772 mm Hg 80%
05:00 0°C° 0 mm 1 m/s 772 mm Hg 79%
06:00 0°C° 0 mm 1 m/s 772 mm Hg 79%
07:00 +2°C° 0 mm 1 m/s 772 mm Hg 72%
08:00 +3°C° 0 mm 1 m/s 773 mm Hg 66%
09:00 +4°C° 0 mm 1 m/s 773 mm Hg 59%
10:00 +5°C° 0 mm 1 m/s 772 mm Hg 55%
11:00 +6°C° 0 mm 1 m/s 772 mm Hg 51%
12:00 +7°C° 0 mm 1 m/s 772 mm Hg 48%
13:00 +7°C° 0 mm 1 m/s 772 mm Hg 47%
14:00 +7°C° 0 mm 1 m/s 771 mm Hg 47%
15:00 +7°C° 0 mm 1 m/s 771 mm Hg 46%
16:00 +6°C° 0 mm 1 m/s 770 mm Hg 52%
17:00 +4°C° 0 mm 1 m/s 770 mm Hg 58%
18:00 +3°C° 0 mm 1 m/s 770 mm Hg 63%
19:00 +2°C° 0 mm 1 m/s 770 mm Hg 67%
20:00 +1°C° 0 mm 2 m/s 770 mm Hg 71%
21:00 -1°C° 0 mm 2 m/s 770 mm Hg 75%
22:00 -1°C° 0 mm 2 m/s 770 mm Hg 76%
23:00 +1°C° 0 mm 1 m/s 770 mm Hg 78%

7 Marzo, Domenica

Tempo Temperatura Precipitazioni Vento Pressione Umidità
00:00 0°C° 0 mm 1 m/s 769 mm Hg 79%
01:00 0°C° 0 mm 1 m/s 769 mm Hg 80%
02:00 0°C° 0 mm 1 m/s 768 mm Hg 80%
03:00 0°C° 0 mm 1 m/s 768 mm Hg 80%
04:00 0°C° 0 mm 1 m/s 768 mm Hg 80%
05:00 0°C° 0 mm 1 m/s 768 mm Hg 80%
06:00 0°C° 0 mm 1 m/s 767 mm Hg 79%
07:00 +1°C° 0 mm 1 m/s 767 mm Hg 73%
08:00 +2°C° 0 mm 2 m/s 767 mm Hg 68%
09:00 +3°C° 0 mm 2 m/s 767 mm Hg 62%
10:00 +4°C° 0 mm 2 m/s 766 mm Hg 59%
11:00 +5°C° 0 mm 2 m/s 766 mm Hg 56%
12:00 +5°C° 0 mm 2 m/s 766 mm Hg 53%
13:00 +4°C° 0 mm 3 m/s 765 mm Hg 54%
14:00 +4°C° 0 mm 3 m/s 765 mm Hg 55%
15:00 +4°C° 0 mm 3 m/s 765 mm Hg 56%
16:00 +3°C° 0 mm 3 m/s 765 mm Hg 61%
17:00 +3°C° 0 mm 2 m/s 764 mm Hg 67%
18:00 +2°C° 0 mm 2 m/s 764 mm Hg 72%
19:00 +2°C° 0 mm 2 m/s 764 mm Hg 73%
20:00 +2°C° 0 mm 2 m/s 764 mm Hg 74%
21:00 +2°C° 0 mm 2 m/s 765 mm Hg 75%
22:00 +1°C° 0 mm 2 m/s 764 mm Hg 79%
23:00 +1°C° 0 mm 2 m/s 764 mm Hg 83%

8 Marzo, Lunedi

Tempo Temperatura Precipitazioni Vento Pressione Umidità
00:00 -1°C° 0 mm 2 m/s 764 mm Hg 86%
01:00 -1°C° 0 mm 2 m/s 764 mm Hg 87%
02:00 -1°C° 0 mm 2 m/s 764 mm Hg 88%
03:00 -1°C° 0 mm 2 m/s 763 mm Hg 89%
04:00 -1°C° 0 mm 2 m/s 764 mm Hg 90%
05:00 +1°C° 0 mm 2 m/s 764 mm Hg 91%
06:00 +1°C° 0 mm 2 m/s 764 mm Hg 91%
07:00 +2°C° 0 mm 2 m/s 764 mm Hg 89%
08:00 +3°C° 0 mm 2 m/s 764 mm Hg 86%
09:00 +3°C° 0 mm 2 m/s 764 mm Hg 84%
10:00 +4°C° 0 mm 2 m/s 765 mm Hg 80%
11:00 +5°C° 0 mm 2 m/s 765 mm Hg 75%
12:00 +6°C° 0 mm 2 m/s 765 mm Hg 71%
13:00 +6°C° 0 mm 2 m/s 765 mm Hg 67%
14:00 +6°C° 0 mm 2 m/s 764 mm Hg 64%
15:00 +6°C° 0 mm 2 m/s 764 mm Hg 61%
16:00 +5°C° 0 mm 2 m/s 765 mm Hg 65%
17:00 +4°C° 0 mm 2 m/s 765 mm Hg 70%
18:00 +2°C° 0 mm 2 m/s 765 mm Hg 74%
19:00 +2°C° 0 mm 2 m/s 765 mm Hg 76%
20:00 +1°C° 0 mm 2 m/s 765 mm Hg 77%
21:00 +1°C° 0 mm 2 m/s 766 mm Hg 78%
22:00 +1°C° 0 mm 2 m/s 766 mm Hg 79%
23:00 +1°C° 0 mm 1 m/s 766 mm Hg 80%

9 Marzo, Martedi

Tempo Temperatura Precipitazioni Vento Pressione Umidità
00:00 +1°C° 0 mm 1 m/s 766 mm Hg 81%
01:00 +1°C° 0 mm 1 m/s 766 mm Hg 82%
02:00 +1°C° 0 mm 1 m/s 766 mm Hg 83%
03:00 0°C° 0 mm 1 m/s 766 mm Hg 84%
04:00 0°C° 0 mm 1 m/s 766 mm Hg 84%
05:00 0°C° 0 mm 1 m/s 766 mm Hg 85%
06:00 0°C° 0 mm 1 m/s 766 mm Hg 85%
07:00 +2°C° 0 mm 1 m/s 766 mm Hg 79%
08:00 +2°C° 0 mm 2 m/s 766 mm Hg 72%
09:00 +4°C° 0 mm 2 m/s 766 mm Hg 65%
10:00 +5°C° 0 mm 2 m/s 766 mm Hg 60%
11:00 +6°C° 0 mm 2 m/s 766 mm Hg 55%
12:00 +7°C° 0 mm 3 m/s 766 mm Hg 50%
13:00 +8°C° 0 mm 3 m/s 765 mm Hg 49%
14:00 +8°C° 0 mm 3 m/s 765 mm Hg 49%
15:00 +8°C° 0 mm 3 m/s 765 mm Hg 49%
16:00 +7°C° 0 mm 3 m/s 765 mm Hg 54%
17:00 +4°C° 0 mm 3 m/s 764 mm Hg 59%
18:00 +4°C° 0 mm 2 m/s 764 mm Hg 64%
19:00 +3°C° 0 mm 3 m/s 764 mm Hg 65%
20:00 +2°C° 0 mm 3 m/s 764 mm Hg 66%
21:00 +2°C° 0 mm 3 m/s 764 mm Hg 68%
22:00 +1°C° 0 mm 4 m/s 764 mm Hg 69%
23:00 +1°C° 0 mm 4 m/s 763 mm Hg 70%
Mostrare altro

Abbiamo bisogno del tuo consenso

Meteoprog e i nostri fornitori di servizi possono memorizzare e accedere a dati personali come cookie, identificatori di dispositivi o altre tecnologie simili sul tuo dispositivo e possono elaborare tali dati per personalizzare i contenuti e gli annunci, nonché fornire funzionalità dei social media e analizzarne il traffico.

  • Archiviare e/o accedere alle informazioni sul tuo dispositivo

    Cookie, identificatori di dispositivi o altre informazioni possono essere memorizzati o resi accessibili sul tuo dispositivo per le finalità sopra indicate.

  • Annunci e contenuti personalizzati, misurazione di annunci e contenuti, approfondimenti sul pubblico e sviluppo di prodotti

    Gli annunci e i contenuti possono essere personalizzati in base a un profilo. È possibile aggiungere più dati per personalizzare meglio annunci e contenuti. È possibile misurare il rendimento degli annunci e dei contenuti. È possibile ricavare informazioni sul pubblico che ha visto gli annunci e i contenuti. Tali dati possono essere utilizzati per sviluppare o migliorare l'esperienza, i sistemi e il software dell'utente.

Cliccando su “Accetto”, acconsenti all'uso di cookie, identificatori di dispositivo, web beacon o altre tecnologie simili. Puoi modificare le impostazioni nel browser del tuo dispositivo.

Per determinati scopi, è possibile fare affidamento su interessi legali, piuttosto che sul consenso. Puoi approfondire questo argomento consultando la nostra Informativa sulla privacy e sui cookie.